カタログに戻る

COSMOS 1579 COOLANT

LostLEO
NORAD 28272·DEBRIS·🇷🇺 Russia

打ち上げ Jun 29, 1984 から Baikonur Cosmodrome

Loading…

次のパス (今後24時間)

TLE

古いSource: Space-Track

元期: Nov 24, 2006, 05:43 UTC

1 28272U 84069AH  06328.23863535 -.00000009 +00000-0 +64821-4 0  9997
2 28272 065.0366 178.0097 0055536 306.4758 053.3855 13.89918589142836

AllMySatでCOSMOS 1579 COOLANTをリアルタイム追跡

Download on the App Store